This is the latest recevied weather packets stored in our database for station/object DB8NZ-22. If no packets are shown the sender has not sent any weather packets the latest 1 day(s).
| Time | Temp. | Humidity | Pressure | Rain* | Wind** | Luminosity | Snow |
|---|---|---|---|---|---|---|---|
| 1778427783 | 29.44° C | 27% | 1007.8 hPa | - | - | - | - |
| 1778426883 | 28.89° C | 28% | 1008.1 hPa | - | - | - | - |
| 1778425983 | 30° C | 27% | 1008.3 hPa | - | - | - | - |
| 1778425083 | 29.44° C | 27% | 1008.6 hPa | - | - | - | - |
| 1778424183 | 32.22° C | 25% | 1008.7 hPa | - | - | - | - |
| 1778423283 | 32.78° C | 25% | 1008.8 hPa | - | - | - | - |
| 1778422383 | 32.22° C | 27% | 1009 hPa | - | - | - | - |
| 1778421483 | 32.22° C | 27% | 1009.2 hPa | - | - | - | - |
| 1778420583 | 31.11° C | 29% | 1009.3 hPa | - | - | - | - |
| 1778419682 | 30.56° C | 30% | 1009.5 hPa | - | - | - | - |
| 1778418782 | 29.44° C | 31% | 1009.9 hPa | - | - | - | - |
| 1778417882 | 28.89° C | 31% | 1010 hPa | - | - | - | - |
| 1778416982 | 29.44° C | 32% | 1010.1 hPa | - | - | - | - |
| 1778416082 | 28.89° C | 33% | 1010.3 hPa | - | - | - | - |
| 1778415182 | 28.89° C | 33% | 1010.6 hPa | - | - | - | - |
| 1778414282 | 28.33° C | 34% | 1010.8 hPa | - | - | - | - |
| 1778413382 | 28.33° C | 35% | 1011.1 hPa | - | - | - | - |
| 1778412482 | 27.22° C | 37% | 1011.3 hPa | - | - | - | - |
| 1778411582 | 26.11° C | 39% | 1011.5 hPa | - | - | - | - |
| 1778410682 | 25.56° C | 39% | 1011.7 hPa | - | - | - | - |
| 1778409782 | 25.56° C | 39% | 1011.8 hPa | - | - | - | - |
| 1778408882 | 25° C | 40% | 1012 hPa | - | - | - | - |
| 1778407981 | 24.44° C | 41% | 1012.2 hPa | - | - | - | - |
| 1778407081 | 24.44° C | 42% | 1012.3 hPa | - | - | - | - |
| 1778406181 | 22.78° C | 44% | 1012.5 hPa | - | - | - | - |
* Rain since midnight (hover to see other rain measurements)
** Current wind speed in m/s (hover to see current wind gust speed)